[Date Prev][Date Next][Thread Prev][Thread Next] - [Date Index][Thread Index][Author Index]
2 Line ISS Keps 8-24
- Subject: [sarex] 2 Line ISS Keps 8-24
- From: "Dave Larsen PhD" <doc@xxxxxxxxxxx>
- Date: Sun, 24 Aug 2003 05:51:10 -0700
ISS
1 25544U 98067A 03235.86146567 .00021104 00000-0 24643-3 0 3855
2 25544 51.6321 39.5452 0007208 160.5234 309.1412 15.61544322271571
----
Via the sarex mailing list at AMSAT.ORG courtesy of AMSAT-NA.
To unsubscribe, send "unsubscribe sarex" to Majordomo@amsat.org
AMSAT Home